KCLMKFHR

Guest
Details From KCLM - WILLIAM R FAIRCHILD INTL
To KFHR - FRIDAY HARBOR
Flight Number -
Tags generated
Created
Modified
Stats Distance 31 nm / 57 km
Max Altitude 2,000 ft / 610 m
Waypoints 3
Social Downloads 4
Likes 0
Share VATSIM

Download

Looking for another format? Having issues loading an existing format? Contact us
Advertisement - Login to hide

Notes

Basic altitude profile: - Ascent Rate: 1000ft/min - Ascent Speed: 120kts - Cruise Altitude: 10000ft - Cruise Speed: 200kts - Descent Rate: 500ft/min - Descent Speed: 180kts Options: - Use NATs: yes - Use PACOTS: yes - Use low airways: yes - Use high airways: yes

Route

KCLM DISCO KFHR

ID Type Via Altitude Latitude Longitude Leg Dist Tot Dist Heading (true) Name
O KCLM APT - 0 ft / 0 m 48.12083˚ -123.50007˚ - 0 nm - WILLIAM R FAIRCHILD INTL
DISCO FIX - 2,000 ft / 610 m 48.40029˚ -123.17829˚ 21 nm 21 nm 37° / 38° -
O KFHR APT - 0 ft / 0 m 48.52197˚ -123.02437˚ 9 nm 30 nm 40° / 40° FRIDAY HARBOR

Altitude Profile

Advertisement - Login to hide

KCLM

Details ICAO KCLM (CLM)
Name WILLIAM R FAIRCHILD INTL
Region United States
Timezone America/Los_Angeles (UTC-7.0)
Stats Elevation 291 ft / 89 m (AMSL)
Location 48.120829° -123.500070°
Runways 2
Magnetic Variation 15.988° E

METAR

KCLM 230253Z AUTO 30008KT 10SM CLR 16/08 A2986 RMK AO2 SLP112 T01560083 56013

Decode

TAF

TAF KCLM 222320Z 2300/2324 29008KT P6SM SCT250 FM231300 30007KT P6SM OVC020 FM231700 32009KT P6SM SCT025 SCT250 FM232000 31011KT P6SM SCT250

Decode

Departure Runways

ID Width Length Bearing (true) Bearing (mag) Surface Threshold Offset Overrun Length
08 151 ft / 46 m 6,353 ft / 1,936 m 104.61° 88.62° Asphalt 0 ft / 0 m 0 ft / 0 m
13 49 ft / 15 m 3,244 ft / 989 m 147.64° 131.65° Asphalt 0 ft / 0 m 0 ft / 0 m
26 151 ft / 46 m 6,353 ft / 1,936 m 284.63° 268.64° Asphalt 1,355 ft / 413 m 0 ft / 0 m
31 49 ft / 15 m 3,244 ft / 989 m 327.64° 311.65° Asphalt 0 ft / 0 m 0 ft / 0 m

KFHR

Details ICAO KFHR (FRD)
Name FRIDAY HARBOR
Region United States
Timezone America/Los_Angeles (UTC-7.0)
Stats Elevation 113 ft / 34 m (AMSL)
Location 48.521966° -123.024368°
Runways 1
Magnetic Variation 16.007° E

METAR

KFHR 230253Z AUTO 25005KT 10SM CLR 17/09 A2983 RMK AO2 SLP102 T01670089 56014 TSNO

Decode

TAF

Not found

Destination Runways

ID Width Length Bearing (true) Bearing (mag) Surface Threshold Offset Overrun Length
16 75 ft / 23 m 3,402 ft / 1,037 m 177.06° 161.05° Asphalt 0 ft / 0 m 0 ft / 0 m
34 75 ft / 23 m 3,402 ft / 1,037 m 357.06° 341.05° Asphalt 0 ft / 0 m 0 ft / 0 m